Regional Weather Roundup
Issued by NWS Pendleton, OR

Home | Current Version | Previous Version | Text Only | Print | Product List | Glossary On
Versions: 1 2 3 4 5 6 7 8 9 10 11 12 13 14 15 16 17 18 19 20 21 22 23 24 25 26 27 28 29 30 31 32 33 34 35 36 37 38 39 40 41 42 43 44 45 46 47 48 49 50
000
ASUS46 KPDT 200510
RWRPDT
PENDLETON REGIONAL WEATHER ROUNDUP
NATIONAL WEATHER SERVICE PENDLETON OREGON
1000 PM PDT SAT AUG 19 2017

NOTE: FAIR INDICATES FEW OR NO CLOUDS BELOW 12,000 FEET WITH NO
SIGNIFICANT WEATHER AND/OR OBSTRUCTIONS TO VISIBILITY.

# INDICATES UNOFFICIAL STATION AND DATA

WAZ520-200610-
EAST SLOPES OF WASHINGTON CASCADES

CITY            SKY/WX      TMP DP  RH  WIND    PRES   REMARKS
#BULLFROG       N/A         63  46  54  W6      N/A
#CLE ELUM HS    N/A         62  46  56  SW7     30.06R
#CLE ELUM LAKE  N/A         58  46  64  NW1     30.21R
#EASTON DOT     N/A         58  46  64  N1      N/A
#ELK HTS DOT    N/A         63  63  100 W6      N/A
#GLENWOOD       N/A         59  51  75  CALM    30.01R
#NELSON 3SW     N/A         59  42  53  CALM    30.23R
#NILE           N/A         63  45  52  S1      29.32S
#TEANAWAY 4NE   N/A         62  47  58  SW5     N/A
#TROUT LAKE 1NE N/A         65  49  56  W2      30.01R
#TROUT LAKE 1E  N/A         64  47  54  CALM    30.11R
$$

WAZ521-200610-
SIMCOE HIGHLANDS

CITY            SKY/WX      TMP DP  RH  WIND    PRES   REMARKS
#BICKLETON HS   N/A         64  46  52  N7      30.00R
#CENTERVILLE 1SWN/A         66  50  56  W8      29.95R
#GOLDENDALE 1NE N/A         66  37  34  CALM    N/A
#GOLDENDALE 4W  N/A         68  19  15  W7      30.09R
#GOODNOE HILLS  N/A         70  53  55  W15     N/A
#PITT 4SE       N/A         62  50  65  W5      30.03R
$$

WAZ026-200610-
KITTITAS VALLEY

CITY            SKY/WX      TMP DP  RH  WIND    PRES   REMARKS
ELLENSBURG AP   PTCLDY      66  45  47  NW18G29 30.05F
#ELLENSBURG CWU N/A         65  45  48  W8      29.93S
#ELLENSBURG 3NE N/A         64  47  54  N13G26  28.12S
#ELLENSBURG 1E  N/A         65  43  45  NW2     30.02S
#KITTITAS 3S    N/A         62  43  50  W1      29.98R
#MANASTASH RDG  N/A         62  62  100 NW9     N/A
#ROCKY CYN DOT  N/A         65  44  46  W21G29  N/A
#RYEGRASS DOT   N/A         61  41  48  S17     N/A
$$

WAZ027-200610-
YAKIMA VALLEY

CITY            SKY/WX      TMP DP  RH  WIND    PRES   REMARKS
SUNNYSIDE AP    N/A         58  51  77  CALM    30.01R
YAKIMA AIRPORT  PTCLDY      71  43  36  W7      30.04R
YAKIMA-VAGABOND CLEAR       69  37  31  N10     30.03S
#DONALD 2NE     N/A         71  12  10  N9      28.85F
#GRANDVIEW      N/A         66  50  56  CALM    29.99R
#MABTON         N/A         68  55  63  CALM    30.00R
#MOXEE 2E       N/A         70  N/A N/A NW12    29.95R
#NACHES 2SW     N/A         67  44  43  W15G26  30.02S
#OUTLOOK DOT    N/A         69  42  37  CALM    29.98R
#PARKER DOT     N/A         72  40  31  S18     30.00S
#TERRACE HTS    N/A         70  39  32  N8      29.94R
#TOPPENISH      N/A         72  41  33  CALM    29.90R
#I82 S UMTANUM RN/A         68  37  32  W9      N/A
#UNION GAP DOT  N/A         72  40  31  NW10    N/A
#W YAKIMA       N/A         65  44  46  NE3     29.99R
#WHITE SWAN 5E  N/A         67  47  49  CALM    29.98R
#WILEY CITY 3W  N/A         62  39  43  CALM    30.01R
#ZILLAH DOT     N/A         72  34  25  N6      N/A
$$

WAZ028-200610-
LOWER COLUMBIA BASIN...WASHINGTON

CITY            SKY/WX      TMP DP  RH  WIND    PRES   REMARKS
PASCO           PTCLDY      73  48  41  CALM    29.99R
PROSSER AWOS    N/A         64  54  70  N5      30.04R
RICHLAND AWOS   PTCLDY      70  51  51  CALM    30.00R
#BENTON CITY    N/A         69  47  45  CALM    29.88R
#CONNELL 5N     N/A         66  46  48  SW2     29.97R
#CONNELL 5NW    N/A         64  50  60  CALM    29.92R
#ELTOPIA 6NW    N/A         70  52  53  CALM    28.98R
#KAHLOTUS       N/A         70  41  35  CALM    29.96S
#KENNEWICK 3S   N/A         71  47  42  S2      29.96S
#PATERSON       N/A         72  52  49  CALM    29.95R
#PROSSER DOT    N/A         65  52  63  CALM    30.01R
#SAGEMOOR 2W    N/A         69  51  53  W2      29.83R
#TOUCHET 2S     N/A         59  48  67  CALM    29.95R
#WEST PASCO     N/A         72  51  48  SE1     29.96S
$$

WAZ029-200610-
FOOTHILLS OF THE BLUES...WASHINGTON

CITY            SKY/WX      TMP DP  RH  WIND    PRES   REMARKS
WALLA WALLA AP  PTCLDY      69  45  42  E8      30.02S
#CLYDE 6NW      N/A         60  40  47  CALM    29.96S
#DAYTON SCHOOL  N/A         63  40  43  E2      30.04S
#DELANEY DOT    N/A         67  34  29  SE5     30.02S
#LOWDEN 2SE     N/A         64  50  60  E1      29.96R
#PLEASANT VIEW 1N/A         68  41  37  SW5     29.99R
#PRESCOTT       N/A         58  48  69  CALM    29.96R
#WHITMAN COLLEGEN/A         69  47  45  SE3     30.01S
#WAITSBURG 5S   N/A         63  43  48  CALM    30.06S
#WAITSBURG 6SSE N/A         60  43  53  E3      30.03S
#WAITSBURG 8N   N/A         53  N/A N/A N2      29.95F
#WALLA WALLA 5E N/A         63  45  52  E2      N/A
#WHITMAN MISSIONN/A         63  52  67  CALM    29.98S
$$

WAZ030-200610-
BLUE MOUNTAINS...WASHINGTON

CITY            SKY/WX      TMP DP  RH  WIND    PRES   REMARKS
#DIXIE 5SE      N/A         64  43  46  E2      30.01F
$$

ORZ009-041-WAZ024-200610-
COLUMBIA RIVER GORGE

CITY            SKY/WX      TMP DP  RH  WIND    PRES   REMARKS
HOOD RIVER AP   CLEAR       68  52  57  CALM    30.07R
THE DALLES AP   PTCLDY      74  53  48  NW13    30.01R
#CELILO DOT     N/A         76  53  45  SW8     N/A
#LYLE           N/A         74  56  53  W13     30.03R
#MARYHILL       N/A         72  49  44  N10     29.88
#MURDOCK        N/A         75  54  48  NW16G25 29.96R
#RUFUS DOT      N/A         78  N/A N/A W16     N/A
#SMITHVILLE     N/A         74  53  48  N12     30.00R

$$

ORZ510-200610-
NORTH CENTRAL OREGON

CITY            SKY/WX      TMP DP  RH  WIND    PRES   REMARKS
#ANTELOPE       N/A         65  46  50  E1      29.84R
#CHENOWITH 1W   N/A         67  51  56  W24     N/A
#COW CYN RST AREN/A         66  44  45  NE6     N/A
#DUFUR          N/A         62  50  65  CALM    29.97R
#DUFUR 9E       N/A         65  49  56  W2      30.05S
#GRASS VALLEY 1SN/A         64  48  56  NW2     30.09S
#KENT DOT       N/A         62  38  41  NW8     N/A
#MAUPIN SCHOOL  N/A         70  52  53  W5      30.09R
#SHANIKO 5WSW   N/A         64  40  41  N17     N/A
#SHANIKO 4NW    N/A         61  44  53  N9      30.13R
#TYGH VALLEY 2NEN/A         68  49  51  N1      29.99R
#WAPANITIA AIRPON/A         64  49  58  W2      30.00R
#WASCO 5NE      N/A         67  51  56  W7      29.97S
$$

ORZ511-200610-
CENTRAL OREGON

CITY            SKY/WX      TMP DP  RH  WIND    PRES   REMARKS
BEND AIRPORT    PTCLDY      66  37  34  N5      30.14R
MADRAS AIRPORT  PTCLDY      63  43  48  NW12    30.12R
PRINEVILLE AP   PTCLDY      64  41  43  N9      30.12R
REDMOND AIRPORT PTCLDY      67  36  32  N10     30.11R SMOKE
#ASHWOOD SCHOOL N/A         66  40  38  CALM    30.04R
#BEND 1SW       N/A         57  40  53  CALM    N/A
#BEND-AWBREY    N/A         63  41  44  CALM    30.00R
#BEND-KIM LN    N/A         58  40  51  W1      29.95R
#CULVER         N/A         64  42  45  CALM    29.91R
#CULVER 8W      N/A         67  35  30  CALM    30.10R
#LAKE BILLY CHINN/A         68  N/A N/A CALM    30.04R
#MADRAS 4S      N/A         67  16  14  N5      N/A
#POWELL BUTTE   N/A         65  43  45  N5      30.08R
#PRINEVILLE     N/A         63  41  44  CALM    30.06R
#PRINEVILLE 3N  N/A         64  45  50  NW6     29.98R
#WARM SPRINGS   N/A         70  46  42  CALM    29.88R

$$


ORZ509-200610-
EAST SLOPES OF OREGON CASCADES

CITY            SKY/WX      TMP DP  RH  WIND    PRES   REMARKS
SISTERS AWOS    N/A         66  39  37  CALM    30.08R
#BLUE BOX PASS  N/A         54  N/A N/A CALM    N/A
#CAMP SHERMAN   N/A         57  39  51  CALM    30.06S
#LA PINE 4NW    N/A         56  41  57  CALM    30.03R
#LAVA BUTTE DOT N/A         58  35  42  CALM    N/A
#SISTERS ODOT   N/A         65  41  41  CALM    N/A
#SISTERS 3N     N/A         59  36  42  CALM    30.11R
#SUNRIVER       N/A         59  40  49  CALM    30.20R
#TUMALO 3W      N/A         65  39  38  NE2     29.87R
#WANOGA BUTTE D N/A         56  35  45  NE3     N/A

$$

ORZ044-200610-
LOWER COLUMBIA BASIN...OREGON

CITY            SKY/WX      TMP DP  RH  WIND    PRES   REMARKS
HERMISTON       PTCLDY      68  48  49  E5      29.98F
#BOARDMAN SCHOOLN/A         70  53  55  CALM    29.97R
#BOARDMAN 8SW   N/A         69  51  53  SW3     29.98R
#ECHO 8SW       N/A         64  47  54  S1      30.00S
#I-84 EX 198 DOTN/A         70  45  41  NE7     N/A
#IONE SCHOOL    N/A         73  48  41  CALM    29.98R
#UMATILLA       N/A         70  49  47  E2      29.89S
$$

ORZ507-200610-
NORTHERN FOOTHILLS OF THE BLUES

CITY            SKY/WX      TMP DP  RH  WIND    PRES   REMARKS
PENDLETON AIRPT PTCLDY      66  39  37  SE3     30.03S
#ADAMS 3WNW     N/A         56  36  47  CALM    29.98R
#ATHENA         N/A         57  42  57  CALM    30.01
#CAYUSE         N/A         66  43  43  E7      29.96S
#HELIX SCHOOL   N/A         59  38  45  CALM    29.98S
#HELIX 3N       N/A         63  38  39  CALM    30.02S
#HOLDMAN 5SE    N/A         63  39  41  CALM    30.02S
#HOLDMAN 6E     N/A         64  40  41  CALM    29.78S
#M-F GROVE ELEM N/A         65  42  43  CALM    29.99F
#M-FREEWATER 5SEN/A         63  46  54  CALM    30.02S
#PENDLETON DNTN N/A         67  36  32  CALM    30.01S
#PDT AQUATIC CTRN/A         65  37  35  CALM    30.02S
#PDT SUNRIDGE   N/A         63  40  43  CALM    30.03S
#PENDLETON 7NW  N/A         63  40  43  CALM    28.02F
#PILOT ROCK 1S  N/A         60  39  46  E2      30.06S
#PILOT ROCK     N/A         60  40  47  CALM    29.97S
#TUTUILLA       N/A         60  42  51  CALM    30.06S
#UMAPINE 2E     N/A         61  49  65  SE2     29.97S
#WESTON SCHOOL  N/A         61  39  44  CALM    29.94S

$$

ORZ508-200610-
SOUTHERN FOOTHILLS OF THE BLUES

CITY            SKY/WX      TMP DP  RH  WIND    PRES   REMARKS
LEXINGTON       PTCLDY      68  39  35  SE6     30.08R
#AJAX           N/A         67  43  42  S6      30.22R
#HEPPNER EOC    N/A         65  40  40  SE7     29.92S
#HEPPNER 4NE    N/A         61  40  46  SE5     29.98S
#LEXINGTON 2SE  N/A         69  41  36  CALM    30.00R
#MIKKALO        N/A         69  47  45  W3      30.17R
#OLEX 4N        N/A         67  48  50  W7      30.01R
#RUGGS 5NE      N/A         64  37  37  E1      30.27F
#RUGGS 2SW      N/A         64  40  41  SW5     30.00S

$$

ORZ502-503-200610-
BLUE MOUNTAINS

CITY            SKY/WX      TMP DP  RH  WIND    PRES   REMARKS
MEACHAM         PTCLDY      51  36  56  CALM    30.14S
#BATTLE MTN DOT N/A         55  34  45  NW6     N/A
#GRANITE        N/A         54  37  52  E1      29.85S
#HEPPNER 15SE   N/A         52  39  61  CALM    29.91R
#LADD CYN SMT   N/A         62  41  46  NW6     N/A
#LADD CREEK ODOTN/A         66  43  43  NE8     N/A
#LONG CREEK HS  N/A         55  36  49  CALM    N/A
#N POWDER DOT   N/A         62  44  52  N8      N/A
#PIKES PEAK     N/A         65  40  40  CALM    27.99S
#SUMMERVILLE 5NWN/A         61  35  38  N3      30.07S
#TOLLGATE       N/A         49  41  74  CALM    30.01S
#TROY SCHOOL    N/A         67  47  49  CALM    29.81R
#UKIAH          N/A         52  38  59  CALM    29.93R
#WESTON 4E      N/A         60  42  51  CALM    29.96S
$$

ORZ505-200610-
JOHN DAY BASIN

CITY            SKY/WX      TMP DP  RH  WIND    PRES   REMARKS
JOHN DAY        CLEAR       67  34  29  CALM    30.12R
#ANTELOPE 9ESE  N/A         74  44  34  CALM    N/A
#DAYVILLE SCHOOLN/A         70  35  28  CALM    30.04R
#MITCHELL       N/A         62  44  52  CALM    30.26R
#MITCHELL 8NW   N/A         67  35  30  CALM    30.02R
#MONUMENT HS    N/A         66  40  38  CALM    30.02R
#MT. VERNON 5SE N/A         64  38  38  CALM    30.08R
#SPRAY SCHOOL   N/A         67  N/A N/A CALM    N/A
$$

ORZ506-200610-
OCHOCO AND JOHN DAY HIGHLANDS

CITY            SKY/WX      TMP DP  RH  WIND    PRES   REMARKS
#HORSE RIDGE DO N/A         58  31  36  CALM    N/A
#PAULINA ODOT   N/A         68  37  32  N3      N/A
#PINE MTN OBS   N/A         56  35  45  NW7     N/A
#PRAIRIE CITY   N/A         65  43  45  CALM    30.23
#SENECA         N/A         58  N/A N/A N1      N/A
#SENECA 9NW     N/A         58  37  45  CALM    29.94R
$$

ORZ049-200610-
GRANDE RONDE VALLEY

CITY            SKY/WX      TMP DP  RH  WIND    PRES   REMARKS
#COVE           N/A         58  46  64  N2      30.10S
#COVE SCHOOL    N/A         57  44  62  CALM    30.09S
#COVE 6NW       N/A         61  41  48  N1      29.96R
#ELGIN 3N       N/A         58  36  44  CALM    30.06R
#ELGIN 1E       N/A         62  39  43  CALM    N/A
#IMBLER SCHOOL  N/A         63  39  41  CALM    30.04R
#ISLAND CITY 4N N/A         64  51  63  CALM    30.12R
#LA GRANDE-LEFFEN/A         62  40  44  W2      27.11R
#UNION 1S       N/A         58  43  57  CALM    29.96R
$$

ORZ050-200610-
WALLOWA COUNTY

CITY            SKY/WX      TMP DP  RH  WIND    PRES   REMARKS
JOSEPH AIRPORT  PTCLDY      52  41  66  CALM    30.15S
#ENTERPRISE HS  N/A         57  45  64  CALM    29.85R
#IMNAHA 10S     N/A         66  42  42  CALM    30.05R
#JOSEPH         N/A         55  41  59  CALM    30.02R
#JOSEPH 3N      N/A         54  37  52  CALM    30.14S
#JOSEPH 3W      N/A         53  44  71  SW2     30.00R
#LOSTINE        N/A         55  44  66  CALM    29.78R
#LOSTINE 3SE    N/A         54  40  59  CALM    30.16R
#MT HOWARD 8000 N/A         46  38  73  NW2     30.31S
#PROMISE 1S     N/A         56  42  59  SW2     30.09R
#WALLOWA LAKE   N/A         53  43  69  CALM    30.18R
#WALLOWA SCHOOL N/A         63  44  50  CALM    30.05R



$$



USA.gov is the U.S. government's official web portal to all federal, state and local government web resources and services.